This is the latest recevied weather packets stored in our database for station/object DH5DY-6. If no packets are shown the sender has not sent any weather packets the latest 10 day(s).
| Time | Temp. | Humidity | Pressure | Rain* | Wind** | Luminosity | Snow |
|---|---|---|---|---|---|---|---|
| 1788263471 | 18.89° C | 77% | 1018.8 hPa | 0 mm | - | 534 W/m² | - |
| 1788262872 | 18.89° C | 79% | 1019.3 hPa | 0 mm | - | 309 W/m² | - |
| 1788262271 | 18.33° C | 80% | 1018.8 hPa | 0 mm | - | 248 W/m² | - |
| 1788261071 | 17.78° C | 81% | 1019 hPa | 0 mm | - | 186 W/m² | - |
| 1788260470 | 17.78° C | 82% | 1019 hPa | 0 mm | - | 163 W/m² | - |
| 1788259871 | 17.22° C | 82% | 1019 hPa | 0 mm | - | 230 W/m² | - |
| 1788259272 | 17.22° C | 82% | 1019.2 hPa | 0 mm | - | 171 W/m² | - |
| 1788258671 | 16.67° C | 83% | 1019.1 hPa | 0 mm | - | 294 W/m² | - |
| 1788258071 | 16.67° C | 85% | 1019.2 hPa | 0 mm | - | 146 W/m² | - |
| 1788257471 | 16.67° C | 84% | 1019.2 hPa | 0 mm | - | 169 W/m² | - |
| 1788256871 | 16.11° C | 85% | 1019.1 hPa | 0 mm | - | 181 W/m² | - |
| 1788255671 | 16.11° C | 86% | 1019.3 hPa | 0 mm | - | 227 W/m² | - |
| 1788255071 | 16.11° C | 87% | 1019.2 hPa | 0 mm | - | 165 W/m² | - |
| 1788253870 | 15.56° C | 87% | 1019.1 hPa | 0 mm | - | 155 W/m² | - |
| 1788253270 | 15.56° C | 88% | 1019.2 hPa | 0.25 mm | - | 276 W/m² | - |
| 1788252670 | 15.56° C | 88% | 1019.2 hPa | 0.25 mm | - | 237 W/m² | - |
| 1788252070 | 15° C | 89% | 1019.1 hPa | 0.25 mm | - | 192 W/m² | - |
| 1788251471 | 15° C | 89% | 1019.1 hPa | 0.25 mm | - | 183 W/m² | - |
| 1788250870 | 15° C | 89% | 1019 hPa | 0.25 mm | - | 111 W/m² | - |
| 1788250271 | 15° C | 90% | 1018.9 hPa | 0.25 mm | - | 98 W/m² | - |
| 1788249670 | 15° C | 90% | 1019 hPa | 0 mm | - | 74 W/m² | - |
| 1788249069 | 14.44° C | 90% | 1018.9 hPa | 0 mm | - | 104 W/m² | - |
| 1788248470 | 14.44° C | 91% | 1018.9 hPa | 0 mm | - | 91 W/m² | - |
| 1788247869 | 14.44° C | 91% | 1018.7 hPa | 0 mm | - | 47 W/m² | - |
| 1788247269 | 14.44° C | 91% | 1018.7 hPa | 0 mm | - | 44 W/m² | - |
* Rain latest hour (hover to see other rain measurements)
** Current wind speed in m/s (hover to see current wind gust speed)